Home   Weather   Gelibolu   Past weeks

Flag for Turkey Past Weather in Gelibolu, Turkey — Yesterday and Last 2 Weeks

Now
37 °F

Chilly.


Feels Like: 35 °F
Forecast: 46 / 57 °F
Wind: 3 mph from Northeast

Location: Canakkale Airport

Current Time: Dec 11, 2016 at 9:25:34 am

Latest Report: Dec 11, 2016 at 8:50 am


Visibility: 4 mi

Pressure: 30.15 "Hg

Humidity: 93%

Dew Point: 36 °F

Location of GeliboluLocation

Past Weather in Gelibolu — Graph

°F

Gelibolu Temperature Yesterday

Maximum temperature yesterday: 59 °F (at 1:50 pm)
Minimum temperature yesterday: 37 °F (at 6:50 am)
Average temperature yesterday: 46 °F

High & Low Weather Summary for the Past Weeks

 TemperatureHumidityPressure
High63 °F (Nov 27, 12:50 pm)100% (Nov 28, 1:50 am)30.72 "Hg (Nov 28, 1:50 am)
Low28 °F (Dec 2, 4:50 am)38% (Dec 3, 11:50 am)29.77 "Hg (Nov 28, 12:50 pm)
Average44 °F76%30.21 "Hg
* Reported Nov 26 7:50 am — Dec 11 7:50 am, Gelibolu, Weather by CustomWeather, © 2016

Note: Actual official high and low records may vary slightly from our data, if they occured in-between our weather recording intervals... More about our weather records

Advertising

Gelibolu Weather History for the Previous 24 Hours

Scroll right to see more
 ConditionsComfort  
Time TempWeatherWind HumidityBarometerVisibility
7:50 am
Sun, Dec 11
36 °FFog.2 mph100%30.15 "Hg4 mi
6:50 am37 °FClear.5 mph93%30.15 "Hg10 mi
5:50 am37 °FClear.5 mph93%30.15 "Hg10 mi
4:50 am37 °FClear.5 mph93%30.18 "Hg10 mi
11:50 pm
Sat, Dec 10
39 °FClear.5 mph93%30.21 "Hg10 mi
10:50 pm41 °FClear.3 mph93%30.21 "Hg10 mi
9:50 pm41 °FClear.5 mph93%30.21 "Hg10 mi
8:50 pm43 °FClear.5 mph93%30.21 "Hg10 mi
7:50 pm46 °FPassing clouds.3 mph87%30.21 "HgN/A
6:50 pm46 °FClear.1 mph93%30.21 "Hg10 mi
4:50 pm59 °FPassing clouds.7 mph48%30.21 "HgN/A
3:50 pm59 °FSunny.7 mph51%30.21 "Hg10 mi
2:50 pm59 °FPassing clouds.5 mph59%30.21 "HgN/A
1:50 pm59 °FPassing clouds.3 mph63%30.24 "HgN/A
12:50 pm57 °FSunny.1 mph67%30.24 "Hg10 mi
11:50 am50 °FScattered clouds.1 mph82%30.27 "HgN/A
10:50 am45 °FScattered clouds.7 mph93%30.27 "HgN/A
9:50 am39 °FSunny.6 mph100%30.27 "Hg10 mi
Weather by CustomWeather, © 2016

See weather overviewHow to use our weather pages